Location: Ayer Observatory
(42.2600°N, 71.0700°W)
Time: 12:07:04
(UTC-04:00)

FO-29 - Pass Details

Date: 27 August 2019
Orbit: 800 x 1321 km, 98.6° (Epoch: 18 September)

Event Time Altitude Azimuth Distance (km) Brightness Sun altitude
Exits shadow 04:41:21 19° 268° (W) 1,848 10.5 -15.0°
Drops below altitude 10° 04:44:58 10° 312° (NW) 2,384 11.4 -14.4°
Sets 04:47:58 0° 331° (NNW) 3,320 12.3 -13.9°
